Flag for U.S.A. Weather past 2 weeks in Wichita, Kansas, U.S.A.

Now
63 °F

Passing clouds.


Feels Like: 63 °F
Forecast: 47 / 82 °F
Wind: 13 mph from South

Location: Wichita Mid-Continent Airport

Current Time: Mar 30, 2015 at 11:12:07 PM

Latest Report: Mar 30, 2015 at 9:53 PM


Visibility: 10 mi

Pressure: 29.93 "Hg

Humidity: 40%

Dew point: 38 °F

Location of WichitaLocation

Historic Weather in Wichita — Graph

°F

Wichita temperature yesterday

Maximum temperature yesterday: 74 °F (at 12:53 PM)
Minimum temperature yesterday: 47 °F (at 6:53 AM)
Average temperature yesterday: 59 °F

Past Weeks' High & Low Weather Summary

 TemperatureHumidityPressure
High82 °F (Mar 16, 2:53 PM)100% (Mar 19, 2:53 AM)30.33 "Hg (Mar 19, 2:53 AM)
Low31 °F (Mar 20, 6:53 AM)16% (Mar 16, 2:53 PM)29.73 "Hg (Mar 24, 7:53 AM)
Average53 °F60%30.06 "Hg
* Reported Mar 15 9:53 PM — Mar 30 9:53 PM, Wichita, Weather by CustomWeather, © 2015

Note: Actual official high and low records may vary slightly from our data, if they occured in-between our weather recording intervals... More about our weather records

Advertising

Wichita weather history for previous 24 hours

 ConditionsComfort  
Time TempWeatherWind HumidityBarometerVisibility
9:53 PM
Mon, Mar 30
63 °FPassing clouds.13 mph40%29.93 "Hg10 mi
8:53 PM65 °FPassing clouds.14 mph39%29.93 "Hg10 mi
7:53 PM67 °FScattered clouds.12 mph36%29.94 "Hg10 mi
6:53 PM74 °FScattered clouds.15 mph26%29.95 "Hg10 mi
5:53 PM76 °FScattered clouds.16 mph24%29.96 "Hg10 mi
4:53 PM76 °FPassing clouds.20 mph24%29.99 "Hg10 mi
3:53 PM76 °FPassing clouds.20 mph24%30.00 "Hg10 mi
2:53 PM74 °FPassing clouds.16 mph27%30.04 "Hg10 mi
1:53 PM72 °FPassing clouds.16 mph28%30.09 "Hg10 mi
12:53 PM71 °FPassing clouds.17 mph28%30.13 "Hg10 mi
11:53 AM68 °FPassing clouds.16 mph28%30.16 "Hg10 mi
10:53 AM63 °FPassing clouds.12 mph30%30.18 "Hg10 mi
9:53 AM58 °FSunny.10 mph43%30.18 "Hg10 mi
8:53 AM47 °FPassing clouds.No wind69%30.18 "Hg10 mi
7:53 AM37 °FPassing clouds.No wind79%30.19 "Hg10 mi
6:53 AM33 °FClear.3 mph82%30.20 "Hg10 mi
5:53 AM39 °FClear.No wind73%30.18 "Hg10 mi
4:53 AM38 °FClear.No wind76%30.19 "Hg10 mi
3:53 AM39 °FClear.No wind73%30.18 "Hg10 mi
2:53 AM42 °FClear.No wind68%30.19 "Hg10 mi
1:53 AM46 °FClear.3 mph56%30.19 "Hg10 mi
12:53 AM53 °FClear.5 mph45%30.18 "Hg10 mi
11:53 PM
Sun, Mar 29
53 °FClear.8 mph47%30.18 "Hg10 mi
Weather by CustomWeather, © 2015

See weather overviewHow to use our weather pages